User: anonymous
Location: Unspecified
(0.0000°N, 0.0000°E)
Time: 17:51:10
(UTC+02:00)
Language:

Cosmos 2237 Rocket - Orbit

View from above orbital plane
View from above orbital plane
View from above satellite
View from above satellite

Ground track
Ground track

The orbit data is extracted from the following two-line orbital elements,

1 22566U 93016B   14271.76683300  .00000327  00000-0  19408-3 0  1694
2 22566 071.0102 349.9391 0011160 213.9316 146.1094 14.14851505110894
Epoch (UTC): 28 September 2014 18:24:14
Eccentricity: 0.0011160
inclination: 71.0102°
perigee height: 835 km
apogee height: 851 km
right ascension of ascending node: 349.9391°
argument of perigee: 213.9316°
revolutions per day: 14.14851505
mean anomaly at epoch: 146.1094°
orbit number at epoch: 11089

The dashed part of the orbit path shows where the satellite is in the earth's shadow,  

DLR